Location: Jablonec nad Nisou
(50.7221°N, 15.1703°E)
Time: 15:10:48
(UTC+01:00)

Mayak - Visible Passes

Search period start: 25 March 2019 00:00
Search period end: 04 April 2019 01:00
Orbit: 583 x 602 km, 97.6° (Epoch: 25 March)

Date Brightness Start Highest point End Pass type
(mag) Time Alt. Az. Time Alt. Az. Time Alt. Az.
26 Mar 1.8 00:05:12 10° N 00:05:52 14° NNW 00:05:52 14° NNW visible
26 Mar 1.7 22:38:05 10° NNE 22:38:19 11° NNE 22:38:19 11° NNE visible
27 Mar 1.8 00:14:12 10° N 00:14:55 13° NNW 00:14:55 13° NNW visible
27 Mar 1.6 22:46:51 10° NNE 22:47:22 13° NNE 22:47:22 13° NNE visible
28 Mar 1.7 00:23:15 10° NNW 00:23:58 13° NNW 00:23:58 13° NNW visible
28 Mar 1.5 22:55:40 10° NNE 22:56:25 15° NNE 22:56:25 15° NNE visible
29 Mar 1.7 00:32:21 10° NNW 00:33:01 12° NNW 00:33:01 12° NNW visible
29 Mar 1.4 23:04:29 10° NNE 23:05:28 17° NNE 23:05:28 17° NNE visible
30 Mar 1.7 00:41:32 10° NNW 00:42:04 12° NNW 00:42:04 12° NNW visible
30 Mar 1.3 23:13:19 10° N 23:14:30 18° N 23:14:30 18° N visible
31 Mar 1.8 00:50:52 10° NNW 00:51:07 10° NW 00:51:07 10° NW visible
01 Apr 1.3 00:22:11 10° N 00:23:33 20° N 00:23:33 20° N visible
02 Apr 1.2 00:31:04 10° N 00:32:36 21° N 00:32:36 21° N visible
02 Apr 1.5 23:04:48 10° NE 23:05:02 11° NE 23:05:02 11° NE visible
03 Apr 1.2 00:39:58 10° N 00:41:37 22° N 00:41:37 22° N visible
03 Apr 1.3 23:13:27 10° NE 23:14:04 13° NE 23:14:04 13° NE visible
04 Apr 1.1 00:48:53 10° N 00:50:40 22° NNW 00:50:40 22° NNW visible
